Gainesville, GA

1:16 AM EST on November 22, 2017 (GMT -0500)
Gilmer Memorial

Weather History for KGVL - December, 2011

Change the Weather History Date:

Monday, December 19, 2011

  Actual Average Record
Temperature  
Mean Temperature 44 °F 43 °F  
Max Temperature 57 °F 51 °F 75 °F (1931)
Min Temperature 32 °F 34 °F 11 °F (1963)
Degree Days  
Heating Degree Days 20 22  
Month to date heating degree days 384  
Since 1 July heating degree days 919  
Moisture  
Dew Point 30 °F    
Average Humidity 63    
Maximum Humidity 92    
Minimum Humidity 32    
Precipitation  
Precipitation 0.00 in 0.14 in 1.89 in (1936)
Month to date precipitation 3.20  
Year to date precipitation 52.68  
Snow  
Snow 0.00 in - - ()
Month to date snowfall  
Since 1 July snowfall  
Snow Depth -    
Sea Level Pressure  
Sea Level Pressure 30.29 in    
Wind  
Wind Speed 1 mph (South)    
Max Wind Speed 7 mph    
Max Gust Speed -    
Visibility 10 miles    
Events      
T = Trace of Precipitation, MM = Missing Value Source: NWS Daily Summary

Daily Weather History Graph

Daily Weather History Graph

Search for Another Location

Airport or City:

Trip Planner

Search our weather history database for the weather conditions in past years. The results will help you decide how hot, cold, wet, or windy it might be!

Date:

Astronomy

Dec. 19, 2011 Rise Set
Actual Time 7:36 AM EST 5:28 PM EST
Civil Twilight 7:08 AM EST 5:56 PM EST
Nautical Twilight 6:37 AM EST 6:27 PM EST
Astronomical Twilight 6:06 AM EST 6:58 PM EST
Moon 1:55 AM EST (12/19) 1:18 PM EST (12/19)
Length of Visible Light 10h 47m
Length of Day
9h 52m
Waning Crescent, 31% of the Moon is Illuminated
Dec 19
Waning Crescent
Dec 24
New
Jan 1
First Quarter
Jan 9
Full
Jan 16
Last Quarter

Hourly Weather History & Observations

Time (EST) Temp. Dew Point Humidity Pressure Visibility Wind Dir Wind Speed Gust Speed Precip Events Conditions
12:53 AM 37.0 °F 30.9 °F 79% 30.30 in 10.0 mi Calm Calm - N/A   Clear
1:53 AM 35.1 °F 30.9 °F 85% 30.30 in 10.0 mi Calm Calm - N/A   Clear
2:53 AM 34.0 °F 32.0 °F 92% 30.32 in 10.0 mi Calm Calm - N/A   Clear
3:53 AM 34.0 °F 32.0 °F 92% 30.31 in 10.0 mi Calm Calm - N/A   Clear
4:53 AM 33.1 °F 28.9 °F 85% 30.30 in 10.0 mi Calm Calm - N/A   Clear
5:53 AM 33.1 °F 30.9 °F 92% 30.31 in 10.0 mi Calm Calm - N/A   Clear
6:53 AM 32.0 °F 28.0 °F 85% 30.33 in 10.0 mi Calm Calm - N/A   Clear
7:53 AM 32.0 °F 30.0 °F 92% 30.34 in 10.0 mi Calm Calm - N/A   Clear
8:53 AM 39.0 °F 30.9 °F 73% 30.35 in 10.0 mi Calm Calm - N/A   Clear
9:53 AM 48.0 °F 28.0 °F 46% 30.35 in 10.0 mi Calm Calm - N/A   Clear
10:53 AM 50.0 °F 28.9 °F 44% 30.35 in 10.0 mi West 3.5 mph - N/A   Clear
11:53 AM 53.1 °F 28.0 °F 38% 30.32 in 10.0 mi South 6.9 mph - N/A   Clear
2:53 PM 57.0 °F 28.9 °F 34% 30.23 in 10.0 mi Variable 4.6 mph - N/A   Clear
3:53 PM 57.9 °F 28.9 °F 33% 30.24 in 10.0 mi Calm Calm - N/A   Clear
4:53 PM 57.0 °F 27.0 °F 32% 30.24 in 10.0 mi Calm Calm - N/A   Clear
5:53 PM 52.0 °F 27.0 °F 38% 30.25 in 10.0 mi Calm Calm - N/A   Clear
6:53 PM 53.1 °F 28.0 °F 38% 30.25 in 10.0 mi Calm Calm - N/A   Clear
7:53 PM 52.0 °F 33.1 °F 49% 30.26 in 10.0 mi South 3.5 mph - N/A   Clear
8:53 PM 50.0 °F 37.0 °F 61% 30.26 in 10.0 mi ESE 3.5 mph - N/A   Clear
9:53 PM 46.9 °F 35.1 °F 63% 30.24 in 10.0 mi Calm Calm - N/A   Clear
11:53 PM 46.9 °F 36.0 °F 66% 30.23 in 10.0 mi Calm Calm - N/A   Overcast